Regional Weather Roundup
Issued by NWS Boston, MA

Home | Current Version | Previous Version | Text Only | Print | Product List | Glossary On
Versions: 1 2 3 4 5 6 7 8 9 10 11 12 13 14 15 16 17 18 19 20 21 22 23 24 25 26 27 28 29 30 31 32 33 34 35 36 37 38 39 40 41 42 43 44 45 46 47 48 49 50
000
ASUS41 KBOX 302010
RWRBOX

REGIONAL WEATHER ROUNDUP
NATIONAL WEATHER SERVICE TAUNTON MA
400 PM EDT TUE JUN 30 2015

NOTE:  "FAIR" INDICATES FEW OR NO CLOUDS BELOW 12,000 FEET WITH NO
SIGNIFICANT WEATHER AND/OR OBSTRUCTIONS TO VISIBILITY.  THE FOLLOWING
OBSERVATION LOCATIONS DO NOT REPORT PRESENT WEATHER...PROVINCETOWN...
SMITHFIELD...BLOCK ISLAND...KEENE...AND OXFORD.

MAZALL-302100-
EASTERN MASSACHUSETTS

CITY           SKY/WX    TMP DP  RH WIND       PRES   REMARKS
BOSTON         PTSUNNY   69  61  75 E10       29.97F
BEVERLY        MOSUNNY   72  57  59 SE13      29.96F
LAWRENCE       MOSUNNY   81  58  45 SW8       29.96F
BEDFORD        PTSUNNY   82  62  50 SE8       29.93F
BLUE HILL        N/A     77  62  59 S9        29.96F
NORWOOD        PTSUNNY   82  63  52 S8        29.94F
MARSHFIELD     MOSUNNY   72  63  73 E3        29.97F
PLYMOUTH       SUNNY     80  60  50 S10G18    29.96F
TAUNTON        SUNNY     82  59  45 SW10G18   29.96F
NEW BEDFORD    SUNNY     80  58  46 S14       29.96F
$$

MAZALL-302100-
CAPE COD AND THE ISLANDS

CITY           SKY/WX    TMP DP  RH WIND       PRES   REMARKS
FALMOUTH       SUNNY     79  59  50 SW13      29.98F
HYANNIS        SUNNY     76  62  62 S13       29.97F
CHATHAM        SUNNY     74  63  68 SW10G17   30.00F
PROVINCETOWN   SUNNY     79  19  11 SW13G20   29.97F
NANTUCKET      SUNNY     70  62  76 S10       30.00F
MARTHAS VNYRD  SUNNY     75  61  61 SW13      29.99F
$$

MAZALL-302100-
CENTRAL AND WESTERN MASSACHUSETTS

CITY           SKY/WX    TMP DP  RH WIND       PRES   REMARKS
WORCESTER      PTSUNNY   79  58  48 S9G18     29.97F
FITCHBURG      PTSUNNY   79  61  53 SW5       29.96F
ORANGE         CLOUDY    75  62  64 W5        29.95F
SPRINGFIELD    PTSUNNY   79  59  51 S14       29.92F
WESTFIELD      CLOUDY    77  63  61 S7        29.93F
NORTH ADAMS    LGT RAIN  69  65  86 CALM      29.95F
PITTSFIELD     LGT RAIN  68  65  90 N3        29.95F
$$

RIZALL-302100-
RHODE ISLAND

CITY           SKY/WX    TMP DP  RH WIND       PRES   REMARKS
PROVIDENCE     PTSUNNY   80  59  48 S9        29.97F
NEWPORT        SUNNY     76  62  62 S8        29.98F
BLOCK ISLAND   SUNNY     73  61  64 S10       29.99F
SMITHFIELD     SUNNY     81  57  44 S6        29.97F
WESTERLY       SUNNY     76  62  62 S10       29.98F
$$

CTZALL-302100-
CONNECTICUT

CITY           SKY/WX    TMP DP  RH WIND       PRES   REMARKS
BRADLEY INTL   PTSUNNY   82  56  40 S14       29.92F
HARTFORD       MOSUNNY   81  58  45 S12G20    29.93F
BRIDGEPORT     SUNNY     80  58  46 S9        29.93F
DANBURY        SUNNY     77  54  44 S8G17     29.94F
GROTON         SUNNY     73  62  68 S9        29.96F
NEW HAVEN      MOSUNNY   78  62  57 S10       29.94F
CHESTER        NOT AVBL
MERIDEN        SUNNY     81  57  43 S10       29.94F
WILLIMANTIC    SUNNY     80  56  43 S9        29.96F
OXFORD         PTSUNNY   77  59  53 S13G20    29.97F
$$

MEZ002-015-021-024-NHZ003-005-008-011-012-014-VTZ005-008-302100-
NORTHERN NEW ENGLAND

CITY           SKY/WX    TMP DP  RH WIND       PRES   REMARKS
PORTLAND ME    MOSUNNY   73  59  61 S10       29.98S
BANGOR ME      PTSUNNY   75  58  55 S9        29.95F
CONCORD NH     PTSUNNY   77  58  51 SE3       29.96F
MANCHESTER NH  PTSUNNY   79  56  45 VRB3      29.93F
NASHUA NH      PTSUNNY   82  58  43 VRB5      29.95F
PORTSMOUTH NH  PTSUNNY   74  58  57 SE8       29.96F
JAFFREY NH     LGT RAIN  74  58  57 CALM      29.97F
KEENE NH       CLOUDY    70  63  78 CALM      29.96F
BURLINGTON VT  LGT RAIN  68  60  75 S10       29.94F
MT. WASHINGTON CLOUDY    50  48  93 S7          N/A
$$

NYZ052-076-302100-
EASTERN NEW YORK

CITY           SKY/WX    TMP DP  RH WIND       PRES   REMARKS
ALBANY         CLOUDY    68  63  84 NE3       29.93F
NEW YORK CITY  CLOUDY    81  59  47 S22G29    29.90F
$$

ANZALL-302100-
MARINE OBSERVATIONS

STATION/POSITION TIME  TEMP    WIND        PRES    VSBY  WAVE
                       AIR SEA DIR/SP/G                  HT/PER
                 (UTC) (F)     (DEG/KT/KT) (MB)    (MI)  (FT/S)
BOSTON BUOY      1950   64 61  110/ 12/ 14 1014.9F         2/ 9
BUZZARDS BAY     1900          210/  4/  5 1016.8F
NANTUCKET SOUND  1950   68 65  200/  8/  8 1015.4F         1/ 9
MASS BAY-STELLWA 1904   63 60   90/  8/  8 1014.7R  1 7/8  3/ 8
ISLE OF SHOALS   2000   66     120/ 14/ 14 1014.1F
S OF BLOCK IS    1908      67                N/A           4/ 8
$$

......................KEY.........................
  SKY/WX - SKY CONDITION/PRESENT WEATHER
  TMP    - TEMPERATURE IN FAHRENHEIT
  DWPT   - DEWPOINT IN FAHRENHEIT
  RH     - RELATIVE HUMIDITY IN PERCENT
  WIND   - DIRECTION AND SPEED IN MPH
  PRES   - MEAN SEA LEVEL PRESSURE IN INCHES OF HG
  WCI    - WIND CHILL INDEX
  VSB    - VISIBILITY IN MILES
  HX     - HEAT INDEX
  TC     - TEMPERATURE IN CELSIUS
  VRB    - VARIABLE WIND DIRECTION
  N/A    - NOT AVAILABLE



USA.gov is the U.S. government's official web portal to all federal, state and local government web resources and services.